Hofstra Student Garden NY US WEATHERSTEM current weather conditions

sailwx.info

Wind from 026 at 3 knots gusting 8

Air temperature 10.3° C
Dewpoint 7.9° C

Last reported at 2019-Dec-11 02:00 UTC.
Time now 2019-Dec-11 02:32 UTC

Location: N 40°43' W 073°36'.
View on Google Maps.

See reports from other nearby stations

  
Tides and Currents Weather Stations Pressure Air Temp Water Temp Dewpoint Dewpoint Depression Visibility Wind Speed Wind Dir Waves Ship Positions
date/time (UTC)wind fromknots sea level pressurealtimeterstation pressurevisibilityair tempwater tempwave heightnotes
2019-Dec-11 02:00 026 3 gusting 8 10.3
2019-Dec-11 01:50 028 4 gusting 8 10.8
2019-Dec-11 01:40 032 1 gusting 4 11.2
2019-Dec-11 01:30 355 2 gusting 4 11.4
2019-Dec-11 01:20 11.4
2019-Dec-11 01:10 11.4
2019-Dec-11 01:00 11.5
2019-Dec-11 00:50 11.6
2019-Dec-11 00:40 11.6
2019-Dec-11 00:30 11.6
2019-Dec-11 00:20 302 0 gusting 3 11.6
2019-Dec-11 00:10 11.5
2019-Dec-11 00:00 319 0 gusting 3 11.6
2019-Dec-10 23:50 236 0 gusting 4 11.9
2019-Dec-10 23:40 277 2 gusting 4 12.2
2019-Dec-10 23:30 12.3
2019-Dec-10 23:20 286 0 gusting 2 12.3
2019-Dec-10 23:10 269 0 gusting 2 12.2
2019-Dec-10 23:00 260 0 gusting 4 12.1
2019-Dec-10 22:50 12.2
2019-Dec-10 22:40 313 4 gusting 8 12.5
2019-Dec-10 22:30 12.8
2019-Dec-10 22:20 284 1 gusting 4 13.0
2019-Dec-10 22:10 292 1 gusting 6 13.1
2019-Dec-10 22:00 313 0 gusting 6 13.1
2019-Dec-10 21:50 269 1 gusting 4 13.1
2019-Dec-10 21:40 267 0 gusting 6 13.0
2019-Dec-10 21:30 294 1 gusting 9 13.0
2019-Dec-10 21:20 281 1 gusting 7 13.1
2019-Dec-10 21:10 250 2 gusting 7 13.2
2019-Dec-10 21:00 149 3 gusting 8 13.2
2019-Dec-10 20:50 260 2 gusting 7 13.2
2019-Dec-10 20:40 250 0 gusting 7 13.2
2019-Dec-10 20:30 216 5 gusting 9 13.2
2019-Dec-10 20:20 243 3 gusting 9 13.2
2019-Dec-10 20:10 247 4 gusting 10 13.3
2019-Dec-10 20:00 243 3 gusting 10 13.3
2019-Dec-10 19:50 252 6 gusting 9 13.3
2019-Dec-10 19:40 220 4 gusting 8 13.3
2019-Dec-10 19:30 258 2 gusting 7 13.3
2019-Dec-10 19:20 244 2 gusting 8 13.4
2019-Dec-10 19:10 250 0 gusting 9 13.4
2019-Dec-10 19:00 246 3 gusting 6 13.6
2019-Dec-10 18:50 248 1 gusting 8 13.6
2019-Dec-10 18:40 283 0 gusting 7 13.8
2019-Dec-10 18:30 236 1 gusting 6 13.8
2019-Dec-10 18:20 244 4 gusting 6 13.8
2019-Dec-10 18:10 266 1 gusting 4 13.8
2019-Dec-10 18:00 293 2 gusting 7 13.9
2019-Dec-10 17:50 265 1 gusting 6 14.1
2019-Dec-10 17:40 279 3 gusting 7 14.2
2019-Dec-10 17:30 237 4 gusting 8 14.1
2019-Dec-10 17:20 239 2 gusting 9 14.1
2019-Dec-10 17:10 264 0 gusting 9 14.0
2019-Dec-10 17:00 280 1 gusting 10 13.9
2019-Dec-10 16:50 318 2 gusting 11 13.8
2019-Dec-10 16:40 288 1 gusting 11 13.7
2019-Dec-10 16:30 261 2 gusting 7 13.6
2019-Dec-10 16:20 245 4 gusting 8 13.4
2019-Dec-10 16:10 261 0 gusting 4 13.3
2019-Dec-10 16:00 13.1
2019-Dec-10 15:50 223 1 gusting 2 13.0
2019-Dec-10 15:40 12.9
2019-Dec-10 15:30 227 0 gusting 2 12.9
2019-Dec-10 15:20 244 1 gusting 3 12.8
2019-Dec-10 15:10 246 0 gusting 3 12.8
2019-Dec-10 15:00 239 12.7
2019-Dec-10 14:50 236 1 gusting 3 12.6
2019-Dec-10 14:40 232 0 gusting 4 12.5
2019-Dec-10 14:30 194 2 gusting 3 12.5
2019-Dec-10 14:20 244 2 gusting 3 12.5
2019-Dec-10 14:10 212 0 gusting 2 12.5
2019-Dec-10 14:00 217 1 gusting 4 12.5
2019-Dec-10 13:50 261 2 gusting 4 12.4
2019-Dec-10 13:40 146 12.3
2019-Dec-10 13:30 223 12.2
2019-Dec-10 13:20 232 2 gusting 3 12.1
2019-Dec-10 13:10 257 1 gusting 2 11.9
2019-Dec-10 12:50 11.7
2019-Dec-10 12:40 158 0 gusting 1 11.6
2019-Dec-10 12:30 11.7
2019-Dec-10 12:20 171 1 gusting 3 11.7
2019-Dec-10 12:10 129 3 gusting 4 11.7
2019-Dec-10 12:00 110 0 gusting 2 11.7
2019-Dec-10 11:50 194 1 gusting 2 11.7
2019-Dec-10 11:40 11.7
2019-Dec-10 11:30 11.6
2019-Dec-10 11:20 169 1 gusting 2 11.6
2019-Dec-10 11:10 11.6
2019-Dec-10 11:00 181 0 gusting 2 11.8
2019-Dec-10 10:50 190 1 gusting 3 12.1
2019-Dec-10 10:40 197 0 gusting 4 12.3
2019-Dec-10 10:30 12.4
2019-Dec-10 10:20 243 5 gusting 6 12.5
2019-Dec-10 10:10 227 1 gusting 3 12.6
2019-Dec-10 10:00 237 1 gusting 4 12.7
2019-Dec-10 09:50 263 0 gusting 3 12.8
2019-Dec-10 09:40 219 1 gusting 2 12.9
2019-Dec-10 09:30 236 0 gusting 3 12.9
2019-Dec-10 09:20 235 0 gusting 6 12.9
2019-Dec-10 09:10 217 1 gusting 5 12.9
2019-Dec-10 09:00 257 0 gusting 6 12.9
2019-Dec-10 08:50 236 3 gusting 3 12.9
2019-Dec-10 08:40 234 1 gusting 4 13.1
2019-Dec-10 08:30 238 0 gusting 4 13.2
2019-Dec-10 08:20 286 0 gusting 6 13.2
2019-Dec-10 08:10 233 1 gusting 7 13.2
2019-Dec-10 08:00 253 4 gusting 6 13.2
2019-Dec-10 07:50 248 6 gusting 7 13.2
2019-Dec-10 07:40 259 3 gusting 9 13.2
2019-Dec-10 07:30 223 6 gusting 8 13.1
2019-Dec-10 07:20 245 3 gusting 6 13.1
2019-Dec-10 07:10 240 6 gusting 6 12.9
2019-Dec-10 07:00 224 6 gusting 9 12.9
2019-Dec-10 06:50 281 3 gusting 6 12.8
2019-Dec-10 06:40 214 1 gusting 9 12.8
2019-Dec-10 06:30 237 3 gusting 8 12.8
2019-Dec-10 06:20 236 3 gusting 7 12.7
2019-Dec-10 06:10 263 7 gusting 9 12.6
2019-Dec-10 06:00 249 3 gusting 6 12.4
2019-Dec-10 05:50 211 4 gusting 9 12.1
2019-Dec-10 05:40 219 0 gusting 6 11.8
2019-Dec-10 05:30 240 1 gusting 4 11.7
2019-Dec-10 05:20 220 0 gusting 4 11.6
2019-Dec-10 05:10 242 2 gusting 6 11.5
2019-Dec-10 05:00 229 3 gusting 6 11.4
2019-Dec-10 04:50 245 1 gusting 6 11.3
2019-Dec-10 04:40 193 3 gusting 7 11.3
2019-Dec-10 04:30 221 4 gusting 8 11.4
2019-Dec-10 04:20 241 4 gusting 6 11.4
2019-Dec-10 04:10 217 0 gusting 8 11.4
2019-Dec-10 04:00 254 6 gusting 8 11.4
2019-Dec-10 03:50 236 6 gusting 6 11.4
2019-Dec-10 03:40 257 2 gusting 6 11.6
2019-Dec-10 03:30 232 3 gusting 9 11.7
2019-Dec-10 03:20 201 6 gusting 7 11.8
2019-Dec-10 03:10 275 3 gusting 10 11.9
2019-Dec-10 03:00 267 2 gusting 10 11.9
2019-Dec-10 02:50 217 6 gusting 13 11.9
2019-Dec-10 02:40 250 4 gusting 13 12.1
2019-Dec-10 02:30 264 3 gusting 12 12.3
2019-Dec-10 02:20 261 7 gusting 12 12.3
2019-Dec-10 02:10 247 6 gusting 13 12.4
2019-Dec-10 01:50 245 10 gusting 17 12.4
2019-Dec-10 01:40 230 6 gusting 19 12.3
2019-Dec-10 01:30 232 5 gusting 17 12.3
2019-Dec-10 01:20 255 6 gusting 17 12.1
2019-Dec-10 01:10 234 10 gusting 13 11.9
2019-Dec-10 01:00 231 6 gusting 13 11.9
2019-Dec-10 00:50 207 6 gusting 10 11.9
2019-Dec-10 00:40 270 3 gusting 12 11.9
2019-Dec-10 00:30 245 6 gusting 14 12.1
2019-Dec-10 00:10 243 3 gusting 9 11.5
2019-Dec-10 00:00 161 6 gusting 8 11.2
2019-Dec-09 23:50 204 3 gusting 6 11.1
2019-Dec-09 23:40 190 1 gusting 5 11.1
2019-Dec-09 23:30 259 1 gusting 6 11.1
2019-Dec-09 23:20 207 2 gusting 6 11.1
2019-Dec-09 23:10 225 2 gusting 5 11.1
2019-Dec-09 23:00 11.0
2019-Dec-09 22:50 224 3 gusting 6 10.9
2019-Dec-09 22:40 225 2 gusting 4 10.8
2019-Dec-09 22:30 150 0 gusting 4 10.8
2019-Dec-09 22:20 10.8
2019-Dec-09 22:10 250 1 gusting 4 10.8
2019-Dec-09 22:00 220 2 gusting 4 10.8
2019-Dec-09 21:50 153 0 gusting 3 10.9
2019-Dec-09 21:40 171 3 gusting 4 11.1
2019-Dec-09 21:30 144 0 gusting 3 11.1
2019-Dec-09 21:20 176 0 gusting 3 11.2
2019-Dec-09 21:10 151 0 gusting 4 11.1
2019-Dec-09 21:00 187 1 gusting 2 11.1
2019-Dec-09 20:50 181 0 gusting 2 11.1
2019-Dec-09 20:40 216 1 gusting 2 11.1
2019-Dec-09 20:30 202 2 gusting 4 11.1
2019-Dec-09 20:20 218 2 gusting 4 11.1
2019-Dec-09 20:10 194 0 gusting 5 11.2
2019-Dec-09 20:00 246 3 gusting 7 11.2
2019-Dec-09 19:50 210 0 gusting 2 11.3
2019-Dec-09 19:40 11.4
2019-Dec-09 19:30 163 0 gusting 4 11.5
2019-Dec-09 19:20 11.6
2019-Dec-09 19:10 260 1 gusting 7 11.6
2019-Dec-09 19:00 236 1 gusting 8 11.7
2019-Dec-09 18:50 261 3 gusting 13 11.9
2019-Dec-09 18:40 266 5 gusting 13 12.2
2019-Dec-09 18:30 228 1 gusting 10 12.6
2019-Dec-09 18:20 239 2 gusting 12 12.7
2019-Dec-09 18:10 252 2 gusting 10 12.7
2019-Dec-09 18:00 243 2 gusting 7 12.7
2019-Dec-09 17:50 220 2 gusting 6 12.6
2019-Dec-09 17:40 209 2 gusting 8 12.6
2019-Dec-09 17:30 232 1 gusting 11 12.5
2019-Dec-09 17:20 240 1 gusting 6 12.3
2019-Dec-09 17:10 259 2 gusting 9 12.3
2019-Dec-09 17:00 190 5 gusting 13 12.3
2019-Dec-09 16:50 229 7 gusting 16 12.2
2019-Dec-09 16:40 212 4 gusting 13 12.3
2019-Dec-09 16:30 223 6 gusting 17 12.4
2019-Dec-09 16:20 249 7 gusting 12 12.6
2019-Dec-09 16:10 207 13 gusting 18 12.6
2019-Dec-09 16:00 233 5 gusting 16 12.3
2019-Dec-09 15:50 286 3 gusting 12 12.3
2019-Dec-09 15:40 228 7 gusting 12 12.4
2019-Dec-09 15:30 246 6 gusting 14 12.4
2019-Dec-09 15:20 214 7 gusting 12 12.6
2019-Dec-09 15:10 200 4 gusting 16 12.6
2019-Dec-09 15:00 192 11 gusting 13 12.4
2019-Dec-09 14:50 182 6 gusting 13 12.3
2019-Dec-09 14:40 209 11 gusting 13 12.2
2019-Dec-09 14:30 212 7 gusting 10 12.1
2019-Dec-09 14:20 190 2 gusting 6 11.8
2019-Dec-09 14:10 170 5 gusting 8 11.7
2019-Dec-09 14:00 128 0 gusting 7 11.5
2019-Dec-09 13:50 177 1 gusting 5 11.2
2019-Dec-09 13:40 288 1 gusting 7 10.7
2019-Dec-09 13:30 184 0 gusting 3 9.8
2019-Dec-09 13:20 118 2 gusting 3 9.3
2019-Dec-09 13:10 8.7
2019-Dec-09 13:00 8.6
2019-Dec-09 12:50 8.3
2019-Dec-09 12:40 8.2
2019-Dec-09 12:30 098 1 gusting 3 8.0
2019-Dec-09 12:20 7.8
2019-Dec-09 12:10 7.5
2019-Dec-09 12:00 7.3
2019-Dec-09 11:50 092 1 gusting 1 7.1
2019-Dec-09 11:40 092 1 gusting 2 6.9
2019-Dec-09 11:30 105 1 gusting 2 6.7
2019-Dec-09 11:20 6.6
2019-Dec-09 11:10 6.4
2019-Dec-09 11:00 6.3
2019-Dec-09 10:50 6.2
2019-Dec-09 10:40 6.1
2019-Dec-09 10:30 6.1
2019-Dec-09 10:20 6.1
2019-Dec-09 10:10 6.1
2019-Dec-09 10:00 6.1
2019-Dec-09 09:50 6.1
2019-Dec-09 09:40 106 1 gusting 3 6.1
2019-Dec-09 09:30 105 1 gusting 3 6.0
2019-Dec-09 09:10 5.9
2019-Dec-09 09:00 093 0 gusting 0 5.8
2019-Dec-09 08:50 5.8
2019-Dec-09 08:40 5.8
2019-Dec-09 08:30 5.8
2019-Dec-09 08:20 093 0 gusting 2 5.7
2019-Dec-09 08:10 090 0 gusting 3 5.7
2019-Dec-09 08:00 105 0 gusting 6 5.6
2019-Dec-09 07:50 5.3
2019-Dec-09 07:40 5.2
2019-Dec-09 07:30 5.1
2019-Dec-09 07:20 4.9
2019-Dec-09 07:10 4.9
2019-Dec-09 07:00 4.8
2019-Dec-09 06:50 4.8
2019-Dec-09 06:40 4.8
2019-Dec-09 06:30 4.8
2019-Dec-09 06:20 096 0 gusting 2 4.7
2019-Dec-09 06:10 096 0 gusting 1 4.7
2019-Dec-09 06:00 096 0 gusting 1 4.7
2019-Dec-09 05:50 096 0 gusting 2 4.8
2019-Dec-09 05:40 4.7
2019-Dec-09 05:30 4.5
2019-Dec-09 05:20 101 0 gusting 0 4.3
2019-Dec-09 05:10 4.2
2019-Dec-09 05:00 101 0 gusting 1 4.2
2019-Dec-09 04:50 101 0 gusting 0 4.1
2019-Dec-09 04:40 101 4.1
2019-Dec-09 04:30 4.1
2019-Dec-09 04:20 4.1
2019-Dec-09 04:10 4.1
2019-Dec-09 04:00 4.1
2019-Dec-09 03:50 4.1
2019-Dec-09 03:40 101 0 gusting 1 4.0
2019-Dec-09 03:30 4.0
2019-Dec-09 03:20 3.9
2019-Dec-09 03:10 236 0 gusting 1 3.9
2019-Dec-09 03:00 3.9
2019-Dec-09 02:50 3.9
2019-Dec-09 02:40 3.9
2019-Dec-09 02:30 4.1
2019-Dec-09 02:20 4.2
2019-Dec-09 02:10 4.4
2019-Dec-09 02:00 4.6